This is the latest recevied weather packets stored in our database for station/object KD6VPH. If no packets are shown the sender has not sent any weather packets the latest 10 day(s).
| Time | Temp. | Humidity | Pressure | Rain* | Wind** | Luminosity | Snow |
|---|---|---|---|---|---|---|---|
| 1777757718 | 23.89° C | 55% | 1013.1 hPa | 0 mm | - | 1067 W/m² | - |
| 1777757118 | 23.33° C | 59% | 1013.3 hPa | 0 mm | - | 1139 W/m² | - |
| 1777756620 | 23.33° C | 59% | 1013.6 hPa | 0 mm | - | 1299 W/m² | - |
| 1777756518 | 23.33° C | 59% | 1013.6 hPa | 0 mm | - | 1299 W/m² | - |
| 1777755918 | 22.78° C | 58% | 1013.6 hPa | 0 mm | - | 1290 W/m² | - |
| 1777755318 | 22.78° C | 60% | 1013.6 hPa | 0 mm | - | 1296 W/m² | - |
| 1777754718 | 22.22° C | 59% | 1013.7 hPa | 0 mm | - | 1287 W/m² | - |
| 1777754118 | 21.67° C | 60% | 1013.8 hPa | 0 mm | - | 1294 W/m² | - |
| 1777753518 | 21.67° C | 60% | 1013.9 hPa | 0 mm | - | 1290 W/m² | - |
| 1777752918 | 21.67° C | 61% | 1014.1 hPa | 0 mm | - | 1285 W/m² | - |
| 1777752318 | 21.11° C | 62% | 1013.9 hPa | 0 mm | - | 1276 W/m² | - |
| 1777751718 | 20.56° C | 65% | 1013.9 hPa | 0 mm | - | 1259 W/m² | - |
| 1777751118 | 20° C | 64% | 1014.1 hPa | 0 mm | - | 1201 W/m² | - |
| 1777750518 | 20° C | 64% | 1014.1 hPa | 0 mm | - | 898 W/m² | - |
| 1777749918 | 19.44° C | 64% | 1014.1 hPa | 0 mm | - | 1100 W/m² | - |
| 1777749318 | 19.44° C | 65% | 1014.3 hPa | 0 mm | - | 1201 W/m² | - |
| 1777748718 | 18.89° C | 66% | 1014.4 hPa | 0 mm | - | 1167 W/m² | - |
| 1777748118 | 18.89° C | 66% | 1014.6 hPa | 0 mm | - | 1148 W/m² | - |
| 1777747518 | 18.33° C | 67% | 1014.7 hPa | 0 mm | - | 1121 W/m² | - |
| 1777746918 | 17.78° C | 69% | 1014.7 hPa | 0 mm | - | 1099 W/m² | - |
| 1777745118 | 16.67° C | 71% | 1014.9 hPa | 0 mm | - | 1021 W/m² | - |
| 1777744518 | 16.11° C | 73% | 1014.9 hPa | 0 mm | - | 921 W/m² | - |
| 1777743918 | 15.56° C | 74% | 1015.1 hPa | 0 mm | - | 838 W/m² | - |
| 1777743318 | 14.44° C | 76% | 1015.2 hPa | 0 mm | - | 448 W/m² | - |
| 1777742718 | 13.89° C | 78% | 1015.2 hPa | 0 mm | - | 192 W/m² | - |
* Rain latest hour (hover to see other rain measurements)
** Current wind speed in m/s (hover to see current wind gust speed)